Regional Weather Roundup
Issued by NWS Bismarck, ND

Home | Current Version | Previous Version | Text Only | Print | Product List | Glossary On
Versions: 1 2 3 4 5 6 7 8 9 10 11 12 13 14 15 16 17 18 19 20 21 22 23 24 25 26 27 28 29 30 31 32 33 34 35 36 37 38 39 40 41 42 43 44 45 46 47 48 49 50
000
ASUS43 KBIS 210510
RWRBIS

NWR BROADCAST TEXT
NATIONAL WEATHER SERVICE BISMARCK ND
1200 AM CDT SAT APR 21 2018

NOTE: "FAIR" INDICATES FEW OR NO CLOUDS BELOW 12,000 FEET WITH NO
SIGNIFICANT WEATHER AND/OR OBSTRUCTIONS TO VISIBILITY.


CITY           SKY/WX    TMP DP  RH WIND       PRES   REMARKS
WILLISTON      CLEAR     49  36  61 S8        30.15R
MINOT          CLEAR     44  32  62 VRB5      30.20F
MINOT AFB      CLEAR     38  32  79 SE7       30.19F
BISMARCK       CLEAR     38  33  82 SE3       30.29S
DICKINSON      CLEAR     40  36  86 S10       30.19S
GARRISON         N/A     42  33  70 S12       30.23S
HETTINGER ARPT CLEAR     40  35  83 SE13      30.23S
JAMESTOWN      CLEAR     38  34  85 S8        30.31F
CARRINGTON     CLOUDY    41  36  81 S9        30.32S
HAZEN          CLOUDY    43  36  75 S10       30.26F
LINTON           N/A    N/A N/A N/A SE8       30.32F
MANDAN         FAIR      39  36  87 SE7       30.28F
OAKES            N/A     36  36 100 SE8       30.35F
RUGBY          FAIR      41  36  81 S10       30.25F
STANLEY          N/A     43  37  81 S14       30.20F
TIOGA          FAIR      41  37  87 S12       30.18S
WATFORD CITY   FAIR      48  39  71 S20G28    30.15F
$$

CITY           SKY/WX    TMP DP  RH WIND       PRES   REMARKS
GRAND FORKS    FAIR      39  35  86 S9        30.35S
GRAND FORKS AF FAIR      39  33  80 S9        30.34F
DEVILS LAKE    FAIR      35  30  82 SE5       30.31F
FARGO          FAIR      42  33  70 S10       30.37F
CANDO          FAIR      34  34 100 SE7       30.30F
CAVALIER         N/A     41  32  70 S5        30.33S
GRAFTON        FAIR      36  30  80 S9        30.35F
GWINNER          N/A     37  36  93 CALM      30.36S
LANGDON        FAIR      39  36  87 S12       30.31S
ROLLA          FAIR      37  37 100 S8        30.27F
WALHALLA       FAIR      43  30  61 S10       30.31F
$$

CITY           SKY/WX    TMP DP  RH WIND       PRES   REMARKS
ABERDEEN       MOCLDY    38  36  92 CALM      30.35F
MOBRIDGE       CLOUDY    43  36  76 SE12      30.28S
BUFFALO          N/A     39  35  86 S21       30.11F
RAPID CITY     CLOUDY    39  38  96 SE12      30.24R
GLASGOW        CLEAR     48  36  63 E10       30.06S
SIDNEY         CLEAR     47  39  74 S12       30.14S
WOLF POINT     CLEAR     50  35  56 CALM      30.09S
GLENDIVE       CLEAR     46  39  76 S12       30.14S
MILES CITY     CLEAR     49  41  74 SE15      30.09S
BAKER          CLEAR     40  38  93 SE22      30.15F
$$

CITY           SKY/WX    TMP DP  RH WIND       PRES   REMARKS
BILLINGS       CLEAR     51  35  54 N5        30.09S
GREAT FALLS    CLEAR     42  26  53 SW10      30.06F
REGINA         CLEAR     43  36  75 SE17      30.11F
ESTEVAN        PTCLDY    39  32  75 SE8       30.15S
$$




USA.gov is the U.S. government's official web portal to all federal, state and local government web resources and services.